Location: Newark
(35.7833°N, 139.8000°E)
Time: 22:24:09
(UTC+00:00)

Envisat - Visible Passes

Search period start: 22 September 2019 00:00
Search period end: 02 October 2019 00:00
Orbit: 764 x 766 km, 98.1° (Epoch: 22 September)

Date Brightness Start Highest point End Pass type
(mag) Time Alt. Az. Time Alt. Az. Time Alt. Az.
22 Sep 5.3 09:47:20 10° SSW 09:51:34 26° W 09:55:49 10° NW visible
23 Sep 3.6 09:09:40 10° S 09:14:41 63° W 09:19:43 10° NNW visible
24 Sep 6.0 10:14:35 10° SW 10:17:17 14° W 10:19:59 10° WNW visible
25 Sep 4.8 09:35:41 10° SSW 09:40:15 34° W 09:44:51 10° NNW visible
26 Sep 3.2 08:58:20 10° S 09:03:25 82° WSW 09:08:31 10° NNW visible
27 Sep 5.8 10:02:25 10° SW 10:05:55 19° W 10:09:27 10° NW visible
28 Sep 4.3 09:24:09 10° S 09:28:57 44° W 09:33:48 10° NNW visible
29 Sep 3.0 08:47:07 10° SSE 08:52:10 79° ENE 08:57:16 10° N visible
30 Sep 5.4 09:50:32 10° SSW 09:54:35 24° W 09:58:40 10° NW visible
01 Oct 3.7 09:12:42 10° S 09:17:40 57° W 09:22:40 10° NNW visible
